TimePDT,TemperatureF,Dew PointF,Humidity,Sea Level PressureIn,VisibilityMPH,Wind Direction,Wind SpeedMPH,Gust SpeedMPH,PrecipitationIn,Events,Conditions,WindDirDegrees,DateUTC
12:15 AM,48.2,30.2,50,30.12,10.0,SE,4.6,-,N/A,,Clear,130,2013-06-21 07:15:00
12:35 AM,44.6,28.4,53,30.13,10.0,NNW,3.5,-,N/A,,Clear,340,2013-06-21 07:35:00
12:55 AM,39.2,24.8,56,30.13,10.0,West,3.5,-,N/A,,Clear,270,2013-06-21 07:55:00
1:15 AM,37.4,24.8,60,30.13,10.0,NNW,5.8,-,N/A,,Clear,340,2013-06-21 08:15:00
1:35 AM,37.4,24.8,60,30.12,10.0,Calm,Calm,-,N/A,,Clear,0,2013-06-21 08:35:00
1:55 AM,37.4,24.8,60,30.12,10.0,NW,5.8,-,N/A,,Clear,320,2013-06-21 08:55:00
2:15 AM,41.0,23.0,49,30.12,10.0,Calm,Calm,-,N/A,,Clear,0,2013-06-21 09:15:00
2:35 AM,39.2,23.0,52,30.12,10.0,Calm,Calm,-,N/A,,Clear,0,2013-06-21 09:35:00
2:55 AM,41.0,21.2,45,30.11,10.0,Calm,Calm,-,N/A,,Clear,0,2013-06-21 09:55:00
3:15 AM,41.0,21.2,45,30.11,10.0,Calm,Calm,-,N/A,,Clear,0,2013-06-21 10:15:00
3:35 AM,35.6,21.2,56,30.10,10.0,NNW,6.9,-,N/A,,Clear,340,2013-06-21 10:35:00
3:55 AM,41.0,21.2,45,30.10,10.0,Calm,Calm,-,N/A,,Clear,0,2013-06-21 10:55:00
4:15 AM,42.8,21.2,42,30.10,10.0,South,3.5,-,N/A,,Clear,170,2013-06-21 11:15:00
4:35 AM,39.2,21.2,49,30.11,10.0,West,3.5,-,N/A,,Clear,260,2013-06-21 11:35:00
4:55 AM,44.6,21.2,39,30.11,10.0,West,11.5,-,N/A,,Clear,260,2013-06-21 11:55:00
5:15 AM,42.8,23.0,46,30.12,10.0,WSW,10.4,-,N/A,,Clear,250,2013-06-21 12:15:00
5:35 AM,44.6,23.0,43,30.13,10.0,WSW,10.4,-,N/A,,Clear,250,2013-06-21 12:35:00
5:55 AM,44.6,24.8,46,30.14,10.0,West,12.7,-,N/A,,Clear,260,2013-06-21 12:55:00
6:15 AM,44.6,24.8,46,30.14,10.0,West,12.7,-,N/A,,Clear,260,2013-06-21 13:15:00
6:35 AM,46.4,24.8,43,30.15,10.0,West,12.7,-,N/A,,Clear,260,2013-06-21 13:35:00
6:55 AM,46.4,24.8,43,30.15,10.0,West,11.5,-,N/A,,Clear,260,2013-06-21 13:55:00
7:15 AM,48.2,24.8,40,30.15,10.0,West,11.5,-,N/A,,Clear,270,2013-06-21 14:15:00
7:35 AM,50.0,24.8,37,30.15,10.0,West,10.4,-,N/A,,Clear,270,2013-06-21 14:35:00
7:55 AM,51.8,24.8,35,30.15,10.0,WNW,9.2,-,N/A,,Clear,290,2013-06-21 14:55:00
8:15 AM,51.8,24.8,35,30.15,10.0,West,10.4,-,N/A,,Clear,280,2013-06-21 15:15:00
8:35 AM,55.4,24.8,31,30.16,10.0,WNW,10.4,17.3,N/A,,Clear,290,2013-06-21 15:35:00
8:55 AM,55.4,24.8,31,30.15,10.0,WNW,8.1,-,N/A,,Clear,290,2013-06-21 15:55:00
9:15 AM,57.2,24.8,29,30.15,10.0,NW,5.8,-,N/A,,Clear,320,2013-06-21 16:15:00
9:35 AM,59.0,24.8,27,30.15,10.0,West,3.5,-,N/A,,Clear,270,2013-06-21 16:35:00
9:55 AM,59.0,24.8,27,30.14,10.0,Calm,Calm,-,N/A,,Clear,0,2013-06-21 16:55:00
10:15 AM,60.8,24.8,25,30.14,10.0,NW,4.6,-,N/A,,Clear,320,2013-06-21 17:15:00
10:35 AM,62.6,23.0,22,30.14,10.0,Calm,Calm,-,N/A,,Clear,0,2013-06-21 17:35:00
10:55 AM,62.6,23.0,22,30.13,10.0,Calm,Calm,-,N/A,,Clear,0,2013-06-21 17:55:00
11:15 AM,66.2,23.0,19,30.12,10.0,ESE,10.4,18.4,N/A,,Clear,110,2013-06-21 18:15:00
11:35 AM,68.0,21.2,17,30.12,10.0,SE,11.5,-,N/A,,Clear,140,2013-06-21 18:35:00
11:55 AM,69.8,19.4,15,30.12,10.0,ESE,9.2,-,N/A,,Clear,120,2013-06-21 18:55:00
12:15 PM,71.6,19.4,14,30.11,10.0,East,10.4,-,N/A,,Clear,100,2013-06-21 19:15:00
12:35 PM,71.6,17.6,13,30.11,10.0,ESE,10.4,20.7,N/A,,Clear,120,2013-06-21 19:35:00
12:55 PM,71.6,14.0,11,30.11,10.0,WNW,4.6,17.3,N/A,,Clear,290,2013-06-21 19:55:00
1:15 PM,73.4,14.0,10,30.11,10.0,NW,15.0,24.2,N/A,,Clear,310,2013-06-21 20:15:00
1:35 PM,73.4,15.8,11,30.11,10.0,WNW,24.2,32.2,N/A,,Clear,300,2013-06-21 20:35:00
1:55 PM,73.4,17.6,12,30.10,10.0,WNW,21.9,29.9,N/A,,Clear,300,2013-06-21 20:55:00
2:15 PM,73.4,19.4,13,30.10,10.0,WNW,21.9,31.1,N/A,,Clear,290,2013-06-21 21:15:00
2:35 PM,73.4,21.2,14,30.10,10.0,WNW,20.7,31.1,N/A,,Clear,300,2013-06-21 21:35:00
2:55 PM,73.4,23.0,15,30.09,10.0,WNW,23.0,33.4,N/A,,Clear,300,2013-06-21 21:55:00
3:15 PM,73.4,23.0,15,30.09,10.0,WNW,25.3,35.7,N/A,,Clear,290,2013-06-21 22:15:00
3:35 PM,73.4,24.8,16,30.09,10.0,WNW,24.2,33.4,N/A,,Clear,290,2013-06-21 22:35:00
3:55 PM,73.4,26.6,18,30.09,10.0,WNW,20.7,28.8,N/A,,Clear,290,2013-06-21 22:55:00
4:15 PM,73.4,26.6,18,30.09,10.0,WNW,21.9,29.9,N/A,,Clear,290,2013-06-21 23:15:00
4:35 PM,73.4,23.0,15,30.08,10.0,WNW,23.0,28.8,N/A,,Clear,300,2013-06-21 23:35:00
4:55 PM,73.4,28.4,19,30.08,10.0,NW,21.9,28.8,N/A,,Clear,310,2013-06-21 23:55:00
5:15 PM,71.6,26.6,19,30.08,10.0,WNW,19.6,26.5,N/A,,Clear,290,2013-06-22 00:15:00
5:35 PM,71.6,26.6,19,30.08,10.0,WNW,18.4,26.5,N/A,,Clear,300,2013-06-22 00:35:00
5:55 PM,71.6,28.4,20,30.08,10.0,WNW,19.6,28.8,N/A,,Clear,300,2013-06-22 00:55:00
6:15 PM,69.8,30.2,23,30.08,10.0,WNW,20.7,26.5,N/A,,Clear,300,2013-06-22 01:15:00
6:35 PM,68.0,30.2,24,30.09,10.0,WNW,17.3,23.0,N/A,,Clear,300,2013-06-22 01:35:00
6:55 PM,68.0,30.2,24,30.09,10.0,NW,16.1,23.0,N/A,,Clear,310,2013-06-22 01:55:00
7:15 PM,66.2,32.0,28,30.10,10.0,WNW,16.1,24.2,N/A,,Clear,290,2013-06-22 02:15:00
7:35 PM,64.4,32.0,30,30.09,10.0,NW,12.7,23.0,N/A,,Clear,310,2013-06-22 02:35:00
7:55 PM,62.6,32.0,32,30.10,10.0,WNW,9.2,23.0,N/A,,Clear,300,2013-06-22 02:55:00
8:15 PM,59.0,32.0,36,30.10,10.0,WNW,13.8,24.2,N/A,,Clear,300,2013-06-22 03:15:00
8:35 PM,57.2,33.8,41,30.11,10.0,NW,12.7,-,N/A,,Clear,320,2013-06-22 03:35:00
8:55 PM,57.2,33.8,41,30.12,10.0,WNW,12.7,19.6,N/A,,Clear,300,2013-06-22 03:55:00
9:15 PM,57.2,32.0,38,30.13,10.0,WNW,11.5,18.4,N/A,,Clear,300,2013-06-22 04:15:00
9:35 PM,55.4,32.0,41,30.14,10.0,West,12.7,-,N/A,,Clear,260,2013-06-22 04:35:00
9:55 PM,55.4,32.0,41,30.15,10.0,West,9.2,-,N/A,,Clear,280,2013-06-22 04:55:00
10:15 PM,55.4,32.0,41,30.15,10.0,WNW,15.0,-,N/A,,Clear,290,2013-06-22 05:15:00
10:35 PM,53.6,32.0,44,30.15,10.0,NW,10.4,-,N/A,,Clear,310,2013-06-22 05:35:00
10:55 PM,53.6,32.0,44,30.16,10.0,WNW,11.5,-,N/A,,Clear,300,2013-06-22 05:55:00
11:15 PM,53.6,30.2,41,30.16,10.0,WNW,10.4,-,N/A,,Clear,290,2013-06-22 06:15:00
11:35 PM,51.8,28.4,41,30.17,10.0,West,11.5,16.1,N/A,,Clear,280,2013-06-22 06:35:00
11:55 PM,50.0,26.6,40,30.17,10.0,West,9.2,-,N/A,,Clear,280,2013-06-22 06:55:00